This is the latest recevied weather packets stored in our database for station/object PU2XNA. If no packets are shown the sender has not sent any weather packets the latest 10 day(s).
| Time | Temp. | Humidity | Pressure | Rain* | Wind** | Luminosity | Snow |
|---|---|---|---|---|---|---|---|
| 1787541303 | 18.33° C | 68% | 1016.8 hPa | - | - | - | - |
| 1787540402 | 18.33° C | 67% | 1016.9 hPa | - | - | - | - |
| 1787539503 | 18.33° C | 67% | 1016.9 hPa | - | - | - | - |
| 1787538602 | 18.89° C | 66% | 1016.9 hPa | - | - | - | - |
| 1787537703 | 18.89° C | 66% | 1016.8 hPa | - | - | - | - |
| 1787536803 | 19.44° C | 65% | 1016.7 hPa | - | - | - | - |
| 1787535903 | 19.44° C | 64% | 1016.6 hPa | - | - | - | - |
| 1787535003 | 20° C | 63% | 1016.6 hPa | - | - | - | - |
| 1787534103 | 20° C | 62% | 1016.7 hPa | - | - | - | - |
| 1787533202 | 20.56° C | 60% | 1016.7 hPa | - | - | - | - |
| 1787532302 | 20.56° C | 59% | 1016.7 hPa | - | - | - | - |
| 1787531403 | 20.56° C | 57% | 1016.7 hPa | - | - | - | - |
| 1787530503 | 21.11° C | 54% | 1016.6 hPa | - | - | - | - |
| 1787529603 | 21.11° C | 50% | 1016.4 hPa | - | - | - | - |
| 1787528703 | 21.11° C | 48% | 1016.2 hPa | - | - | - | - |
| 1787527803 | 21.67° C | 46% | 1016 hPa | - | - | - | - |
| 1787526903 | 21.67° C | 46% | 1015.8 hPa | - | - | - | - |
| 1787526003 | 21.67° C | 46% | 1015.6 hPa | - | - | - | - |
| 1787525104 | 22.78° C | 44% | 1015.5 hPa | - | - | - | - |
| 1787524204 | 22.78° C | 43% | 1015.5 hPa | - | - | - | - |
| 1787523303 | 23.33° C | 43% | 1015.3 hPa | - | - | - | - |
| 1787522402 | 23.33° C | 42% | 1015.1 hPa | - | - | - | - |
| 1787521503 | 23.89° C | 41% | 1014.9 hPa | - | - | - | - |
| 1787520603 | 24.44° C | 38% | 1014.7 hPa | - | - | - | - |
| 1787519702 | 25° C | 37% | 1014.6 hPa | - | - | - | - |
* Rain since midnight (hover to see other rain measurements)
** Current wind speed in m/s (hover to see current wind gust speed)